QPF
0.03 0.03 0.04 0.04 0.05 0.05 0.05 0.06 0.06 0.06 0.04 0.03 0.02 0.03 0.04 0.05 0.05 0.04 0.03 0.03 0.03 0.04 0.04 0.05 0.04 0.03 0.03 0.03 0.05 0.08 0.08 0.05 0.04 0.04 0.04 0.04 0.04 0.05
0.02 0.03 0.03 0.04 0.04 0.05 0.05 0.05 0.05 0.06 0.05 0.03 0.02 0.02 0.02 0.04 0.05 0.05 0.05 0.04 0.04 0.04 0.04 0.04 0.04 0.03 0.03 0.03 0.03 0.05 0.07 0.06 0.04 0.04 0.04 0.03 0.04 0.06
0.02 0.02 0.02 0.02 0.02 0.02 0.03 0.03 0.04 0.04 0.05 0.04 0.03 0.02 0.02 0.02 0.04 0.05 0.05 0.05 0.05 0.05 0.05 0.05 0.05 0.04 0.03 0.03 0.03 0.04 0.06 0.06 0.05 0.03 0.03 0.03 0.03 0.04
0.02 0.01 0.01 0.01 0.01 0.02 0.02 0.03 0.03 0.04 0.05 0.05 0.04 0.03 0.03 0.03 0.03 0.04 0.05 0.05 0.04 0.05 0.05 0.05 0.05 0.05 0.04 0.03 0.03 0.02 0.03 0.04 0.06 0.04 0.03 0.02 0.02 0.03
0.02 0.01 0.01 0.01 0.01 0.02 0.02 0.03 0.03 0.04 0.05 0.05 0.04 0.04 0.04 0.04 0.04 0.04 0.04 0.05 0.04 0.04 0.04 0.04 0.05 0.05 0.06 0.05 0.03 0.02 0.02 0.02 0.04 0.05 0.04 0.03 0.02 0.02
0.03 0.02 0.02 0.01 0.01 0.01 0.02 0.02 0.03 0.03 0.04 0.04 0.03 0.03 0.03 0.03 0.04 0.04 0.05 0.05 0.04 0.04 0.04 0.04 0.04 0.05 0.06 0.07 0.06 0.04 0.03 0.03 0.03 0.04 0.05 0.05 0.03 0.02
0.04 0.04 0.04 0.03 0.03 0.02 0.02 0.02 0.03 0.03 0.03 0.04 0.04 0.04 0.04 0.04 0.04 0.04 0.04 0.05 0.05 0.04 0.04 0.04 0.04 0.04 0.05 0.07 0.07 0.06 0.04 0.03 0.02 0.03 0.03 0.04 0.04 0.04
0.08 0.07 0.05 0.04 0.04 0.03 0.03 0.04 0.04 0.04 0.04 0.04 0.04 0.04 0.04 0.04 0.03 0.03 0.03 0.03 0.04 0.03 0.04 0.04 0.03 0.03 0.04 0.05 0.06 0.06 0.06 0.05 0.03 0.03 0.03 0.03 0.03 0.04
0.08 0.08 0.08 0.06 0.05 0.03 0.03 0.03 0.03 0.03 0.03 0.04 0.04 0.03 0.03 0.03 0.03 0.04 0.03 0.03 0.03 0.03 0.03 0.04 0.03 0.03 0.03 0.04 0.05 0.05 0.05 0.05 0.05 0.04 0.03 0.03 0.03 0.03
0.07 0.07 0.08 0.08 0.06 0.05 0.03 0.03 0.02 0.02 0.02 0.02 0.02 0.03 0.03 0.03 0.03 0.03 0.03 0.03 0.03 0.03 0.03 0.03 0.03 0.03 0.03 0.03 0.03 0.03 0.04 0.04 0.04 0.04 0.04 0.03 0.03 0.02
0.05 0.06 0.07 0.08 0.09 0.08 0.04 0.03 0.02 0.02 0.01 0.01 0.02 0.02 0.03 0.04 0.04 0.03 0.03 0.03 0.03 0.03 0.03 0.03 0.02 0.02 0.02 0.02 0.03 0.03 0.03 0.03 0.03 0.03 0.03 0.03 0.02 0.02
0.06 0.06 0.06 0.07 0.09 0.09 0.07 0.04 0.03 0.03 0.02 0.02 0.02 0.02 0.02 0.03 0.04 0.04 0.04 0.03 0.03 0.03 0.02 0.02 0.02 0.02 0.02 0.02 0.02 0.03 0.03 0.03 0.03 0.03 0.02 0.02 0.02 0.01
0.06 0.06 0.06 0.07 0.08 0.09 0.08 0.06 0.04 0.03 0.03 0.03 0.02 0.02 0.02 0.02 0.03 0.03 0.04 0.04 0.03 0.03 0.02 0.02 0.02 0.02 0.02 0.01 0.01 0.02 0.02 0.02 0.03 0.03 0.02 0.02 0.02 0.02
0.04 0.04 0.04 0.05 0.05 0.06 0.07 0.07 0.07 0.06 0.05 0.05 0.04 0.04 0.03 0.02 0.02 0.02 0.02 0.03 0.03 0.03 0.02 0.02 0.03 0.02 0.02 0.02 0.01 0.01 0.01 0.02 0.02 0.02 0.02 0.02 0.02 0.02
0.04 0.04 0.04 0.04 0.04 0.04 0.06 0.07 0.07 0.08 0.07 0.06 0.05 0.04 0.03 0.02 0.02 0.02 0.02 0.02 0.02 0.02 0.02 0.02 0.02 0.02 0.02 0.03 0.02 0.02 0.02 0.01 0.01 0.01 0.01 0.02 0.02 0.02
0.04 0.04 0.04 0.04 0.04 0.04 0.05 0.05 0.07 0.07 0.08 0.06 0.05 0.04 0.03 0.03 0.03 0.02 0.02 0.02 0.02 0.01 0.01 0.01 0.01 0.02 0.02 0.01 0.02 0.02 0.02 0.01 0.01 0.00 0.01 0.01 0.02 0.02
0.03 0.03 0.04 0.03 0.03 0.04 0.04 0.04 0.05 0.06 0.06 0.06 0.05 0.04 0.03 0.03 0.03 0.02 0.02 0.02 0.02 0.01 0.01 0.00 0.00 0.00 0.01 0.01 0.01 0.01 0.01 0.01 0.00 0.01 0.01 0.01 0.01 0.02
0.03 0.04 0.04 0.03 0.03 0.02 0.03 0.04 0.04 0.04 0.04 0.05 0.04 0.03 0.03 0.02 0.02 0.02 0.02 0.02 0.02 0.02 0.01 0.01 0.01 0.00 0.00 0.00 0.01 0.01 0.01 0.01 0.00 0.01 0.01 0.02 0.02 0.02
0.03 0.03 0.03 0.03 0.03 0.03 0.03 0.04 0.04 0.04 0.04 0.03 0.03 0.02 0.02 0.02 0.02 0.02 0.02 0.02 0.02 0.02 0.02 0.02 0.02 0.02 0.02 0.01 0.01 0.01 0.01 0.01 0.01 0.01 0.01 0.01 0.02 0.02
0.03 0.03 0.02 0.03 0.04 0.04 0.04 0.04 0.05 0.04 0.04 0.04 0.03 0.02 0.02 0.02 0.03 0.02 0.02 0.02 0.02 0.02 0.02 0.02 0.02 0.03 0.03 0.03 0.02 0.02 0.01 0.01 0.01 0.01 0.01 0.00 0.01 0.01
0.03 0.03 0.02 0.02 0.03 0.04 0.04 0.04 0.04 0.05 0.05 0.05 0.04 0.03 0.02 0.03 0.03 0.03 0.03 0.03 0.02 0.02 0.02 0.02 0.02 0.02 0.02 0.02 0.02 0.02 0.01 0.01 0.01 0.01 0.01 0.01 0.01 0.01
0.02 0.02 0.02 0.02 0.03 0.03 0.03 0.04 0.04 0.05 0.06 0.06 0.05 0.03 0.03 0.03 0.03 0.03 0.03 0.03 0.02 0.02 0.02 0.02 0.02 0.02 0.02 0.02 0.02 0.02 0.02 0.01 0.01 0.01 0.02 0.03 0.04 0.05
0.02 0.02 0.02 0.02 0.01 0.01 0.02 0.03 0.04 0.05 0.05 0.07 0.06 0.04 0.03 0.03 0.03 0.03 0.03 0.03 0.03 0.03 0.03 0.02 0.02 0.02 0.02 0.02 0.01 0.01 0.01 0.01 0.01 0.01 0.01 0.01 0.02 0.03
MSLP
1007.50 1008.34 1009.11 1009.79 1010.36 1010.85 1011.29 1011.73 1012.20 1012.74 1013.35 1014.03 1014.75 1015.49 1016.22 1016.91 1017.54 1018.10 1018.59 1018.99 1019.31 1019.53 1019.68 1019.73 1019.69 1019.56 1019.34 1019.05 1018.69 1018.26 1017.77 1017.20 1016.56 1015.82 1014.99 1014.04 1012.99 1011.84
1006.93 1007.74 1008.52 1009.22 1009.83 1010.35 1010.81 1011.26 1011.74 1012.28 1012.89 1013.57 1014.30 1015.07 1015.85 1016.59 1017.29 1017.92 1018.47 1018.92 1019.29 1019.56 1019.73 1019.80 1019.78 1019.66 1019.46 1019.19 1018.84 1018.44 1017.97 1017.44 1016.84 1016.16 1015.38 1014.49 1013.50 1012.40
1006.30 1007.08 1007.86 1008.60 1009.25 1009.83 1010.35 1010.84 1011.36 1011.91 1012.53 1013.22 1013.97 1014.75 1015.55 1016.33 1017.07 1017.74 1018.34 1018.85 1019.25 1019.56 1019.76 1019.86 1019.85 1019.75 1019.56 1019.30 1018.96 1018.58 1018.13 1017.64 1017.08 1016.45 1015.74 1014.92 1014.00 1012.98
1005.64 1006.37 1007.14 1007.90 1008.61 1009.26 1009.85 1010.41 1010.97 1011.57 1012.21 1012.91 1013.66 1014.45 1015.26 1016.05 1016.81 1017.52 1018.15 1018.70 1019.15 1019.50 1019.74 1019.88 1019.91 1019.83 1019.67 1019.42 1019.10 1018.72 1018.30 1017.84 1017.32 1016.74 1016.10 1015.36 1014.53 1013.59
1005.00 1005.66 1006.40 1007.16 1007.91 1008.61 1009.27 1009.90 1010.53 1011.17 1011.84 1012.56 1013.31 1014.09 1014.89 1015.68 1016.44 1017.16 1017.82 1018.41 1018.91 1019.32 1019.63 1019.83 1019.91 1019.89 1019.77 1019.56 1019.27 1018.92 1018.52 1018.08 1017.60 1017.07 1016.48 1015.82 1015.07 1014.22
1004.45 1005.00 1005.68 1006.41 1007.16 1007.90 1008.61 1009.30 1009.98 1010.67 1011.37 1012.09 1012.83 1013.60 1014.37 1015.14 1015.90 1016.63 1017.31 1017.95 1018.51 1019.00 1019.39 1019.68 1019.85 1019.92 1019.87 1019.72 1019.48 1019.16 1018.80 1018.39 1017.94 1017.45 1016.91 1016.31 1015.63 1014.86
1004.07 1004.48 1005.04 1005.70 1006.41 1007.15 1007.88 1008.61 1009.32 1010.04 1010.75 1011.47 1012.21 1012.95 1013.69 1014.44 1015.18 1015.91 1016.62 1017.30 1017.93 1018.50 1019.00 1019.40 1019.70 1019.88 1019.93 1019.87 1019.70 1019.45 1019.12 1018.75 1018.33 1017.87 1017.37 1016.81 1016.20 1015.50
1003.88 1004.13 1004.54 1005.09 1005.72 1006.41 1007.13 1007.85 1008.58 1009.30 1010.02 1010.73 1011.44 1012.16 1012.87 1013.59 1014.32 1015.05 1015.78 1016.50 1017.20 1017.87 1018.48 1019.01 1019.44 1019.75 1019.93 1019.98 1019.90 1019.72 1019.46 1019.12 1018.73 1018.30 1017.83 1017.31 1016.74 1016.10
1003.93 1003.99 1004.24 1004.63 1005.15 1005.75 1006.40 1007.09 1007.80 1008.50 1009.21 1009.92 1010.61 1011.30 1012.00 1012.69 1013.40 1014.13 1014.88 1015.64 1016.41 1017.16 1017.88 1018.53 1019.08 1019.52 1019.83 1020.00 1020.04 1019.94 1019.75 1019.46 1019.11 1018.71 1018.26 1017.77 1017.24 1016.65
1004.19 1004.07 1004.14 1004.36 1004.73 1005.21 1005.77 1006.39 1007.05 1007.73 1008.42 1009.11 1009.79 1010.47 1011.15 1011.84 1012.55 1013.28 1014.04 1014.83 1015.64 1016.45 1017.25 1017.99 1018.66 1019.21 1019.64 1019.92 1020.06 1020.07 1019.95 1019.73 1019.42 1019.06 1018.64 1018.18 1017.68 1017.14
1004.63 1004.35 1004.24 1004.29 1004.49 1004.83 1005.27 1005.80 1006.39 1007.03 1007.70 1008.38 1009.07 1009.75 1010.44 1011.14 1011.85 1012.58 1013.35 1014.16 1014.99 1015.83 1016.67 1017.47 1018.20 1018.84 1019.35 1019.73 1019.97 1020.06 1020.03 1019.88 1019.64 1019.33 1018.95 1018.53 1018.08 1017.58
1005.22 1004.80 1004.53 1004.41 1004.44 1004.62 1004.93 1005.35 1005.86 1006.45 1007.09 1007.77 1008.48 1009.18 1009.90 1010.62 1011.35 1012.10 1012.88 1013.68 1014.51 1015.35 1016.18 1016.99 1017.75 1018.43 1019.00 1019.45 1019.77 1019.95 1020.00 1019.93 1019.77 1019.52 1019.21 1018.85 1018.45 1018.01
1005.89 1005.36 1004.96 1004.68 1004.55 1004.57 1004.74 1005.04 1005.47 1006.00 1006.61 1007.29 1008.01 1008.76 1009.52 1010.28 1011.05 1011.82 1012.60 1013.40 1014.20 1015.01 1015.82 1016.60 1017.34 1018.02 1018.62 1019.11 1019.48 1019.74 1019.88 1019.90 1019.83 1019.67 1019.44 1019.15 1018.82 1018.46
1006.61 1006.00 1005.48 1005.07 1004.79 1004.66 1004.68 1004.86 1005.19 1005.65 1006.23 1006.90 1007.64 1008.43 1009.24 1010.05 1010.87 1011.67 1012.46 1013.25 1014.03 1014.79 1015.55 1016.28 1016.98 1017.64 1018.23 1018.74 1019.16 1019.48 1019.70 1019.82 1019.85 1019.79 1019.66 1019.46 1019.21 1018.93
1007.34 1006.68 1006.07 1005.54 1005.13 1004.85 1004.73 1004.78 1004.99 1005.37 1005.90 1006.55 1007.30 1008.12 1008.97 1009.84 1010.71 1011.55 1012.36 1013.15 1013.91 1014.64 1015.34 1016.02 1016.67 1017.28 1017.86 1018.37 1018.83 1019.21 1019.52 1019.73 1019.87 1019.92 1019.89 1019.79 1019.63 1019.43
1008.04 1007.35 1006.68 1006.07 1005.54 1005.13 1004.87 1004.78 1004.87 1005.14 1005.59 1006.20 1006.93 1007.76 1008.65 1009.56 1010.47 1011.36 1012.20 1013.00 1013.75 1014.46 1015.13 1015.77 1016.38 1016.96 1017.52 1018.04 1018.53 1018.96 1019.34 1019.66 1019.89 1020.05 1020.13 1020.13 1020.07 1019.95
1008.69 1008.01 1007.31 1006.63 1006.00 1005.48 1005.09 1004.86 1004.82 1004.97 1005.31 1005.84 1006.52 1007.33 1008.22 1009.15 1010.09 1011.02 1011.90 1012.73 1013.50 1014.21 1014.88 1015.50 1016.09 1016.66 1017.22 1017.75 1018.27 1018.76 1019.21 1019.60 1019.93 1020.19 1020.37 1020.47 1020.49 1020.44
1009.30 1008.63 1007.93 1007.22 1006.53 1005.92 1005.41 1005.05 1004.86 1004.88 1005.09 1005.50 1006.10 1006.84 1007.69 1008.62 1009.58 1010.53 1011.45 1012.32 1013.12 1013.87 1014.55 1015.19 1015.80 1016.38 1016.95 1017.51 1018.07 1018.60 1019.11 1019.57 1019.99 1020.33 1020.59 1020.77 1020.87 1020.89
1009.84 1009.23 1008.56 1007.84 1007.13 1006.45 1005.85 1005.37 1005.06 1004.92 1004.99 1005.26 1005.73 1006.38 1007.16 1008.04 1008.97 1009.93 1010.88 1011.79 1012.64 1013.44 1014.17 1014.86 1015.50 1016.12 1016.73 1017.32 1017.91 1018.48 1019.04 1019.56 1020.03 1020.44 1020.77 1021.02 1021.18 1021.26
1010.33 1009.79 1009.17 1008.50 1007.79 1007.09 1006.43 1005.86 1005.42 1005.15 1005.07 1005.19 1005.51 1006.02 1006.70 1007.50 1008.39 1009.32 1010.28 1011.22 1012.12 1012.97 1013.77 1014.51 1015.22 1015.89 1016.53 1017.17 1017.79 1018.39 1018.98 1019.54 1020.05 1020.51 1020.90 1021.20 1021.42 1021.56
1010.74 1010.30 1009.77 1009.16 1008.50 1007.81 1007.13 1006.51 1005.98 1005.59 1005.37 1005.34 1005.50 1005.87 1006.41 1007.10 1007.91 1008.80 1009.73 1010.68 1011.62 1012.52 1013.38 1014.19 1014.95 1015.68 1016.37 1017.04 1017.69 1018.32 1018.93 1019.51 1020.05 1020.54 1020.96 1021.31 1021.59 1021.78
1011.08 1010.74 1010.32 1009.81 1009.22 1008.58 1007.92 1007.28 1006.71 1006.23 1005.89 1005.72 1005.74 1005.95 1006.35 1006.91 1007.62 1008.43 1009.32 1010.26 1011.20 1012.14 1013.04 1013.90 1014.72 1015.49 1016.23 1016.93 1017.60 1018.24 1018.86 1019.45 1020.01 1020.52 1020.97 1021.36 1021.69 1021.95
1011.32 1011.09 1010.78 1010.38 1009.89 1009.33 1008.73 1008.11 1007.52 1007.00 1006.58 1006.30 1006.19 1006.26 1006.52 1006.94 1007.53 1008.25 1009.07 1009.97 1010.90 1011.84 1012.76 1013.66 1014.51 1015.32 1016.09 1016.81 1017.49 1018.15 1018.77 1019.36 1019.92 1020.45 1020.93 1021.36 1021.74 1022.06
Thickness
5535 5534 5534 5533 5533 5532 5531 5532 5533 5538 5543 5544 5540 5538 5535 5534 5532 5529 5527 5524 5520 5517 5514 5511 5508 5506 5503 5500 5498 5495 5493 5490 5488 5486 5484 5483 5482 5482
5526 5525 5524 5524 5523 5523 5522 5523 5523 5525 5530 5533 5530 5529 5527 5526 5524 5521 5519 5516 5513 5510 5506 5502 5499 5497 5494 5491 5489 5486 5484 5482 5479 5477 5476 5475 5474 5473
5516 5515 5515 5514 5514 5514 5514 5514 5514 5515 5518 5521 5519 5519 5519 5517 5515 5512 5510 5508 5506 5502 5498 5494 5491 5488 5485 5482 5480 5478 5476 5473 5471 5470 5468 5468 5466 5466
5507 5506 5506 5505 5505 5505 5505 5506 5506 5507 5508 5511 5511 5509 5509 5507 5506 5504 5502 5499 5497 5493 5489 5485 5482 5480 5477 5474 5471 5469 5467 5465 5464 5462 5461 5460 5459 5458
5496 5497 5497 5497 5497 5497 5497 5497 5498 5498 5499 5500 5500 5500 5499 5497 5496 5494 5493 5490 5488 5484 5481 5478 5474 5471 5468 5466 5462 5460 5458 5457 5456 5455 5453 5452 5450 5449
5487 5487 5488 5488 5489 5489 5489 5489 5489 5490 5490 5491 5491 5491 5490 5487 5486 5486 5485 5482 5479 5476 5472 5469 5466 5462 5459 5457 5455 5452 5451 5450 5448 5447 5445 5443 5442 5440
5478 5478 5478 5479 5480 5480 5481 5481 5481 5481 5481 5482 5482 5482 5481 5478 5477 5475 5474 5473 5470 5466 5464 5461 5458 5455 5451 5449 5446 5444 5443 5442 5440 5438 5437 5435 5433 5432
5469 5469 5469 5469 5470 5470 5471 5471 5472 5473 5473 5473 5473 5473 5472 5470 5468 5465 5463 5462 5462 5458 5454 5452 5448 5446 5443 5440 5438 5435 5434 5433 5432 5430 5428 5427 5425 5424
5461 5461 5460 5461 5461 5462 5462 5462 5463 5462 5462 5463 5464 5464 5462 5460 5458 5456 5454 5452 5450 5447 5443 5443 5440 5438 5435 5432 5429 5426 5425 5424 5423 5421 5420 5419 5418 5417
5451 5452 5452 5452 5452 5453 5453 5453 5454 5454 5454 5454 5455 5454 5452 5449 5448 5446 5444 5443 5440 5436 5433 5432 5432 5429 5428 5425 5422 5419 5417 5415 5414 5413 5412 5412 5411 5410
5441 5442 5443 5443 5443 5444 5445 5446 5446 5446 5444 5444 5444 5443 5442 5441 5440 5438 5437 5435 5434 5431 5425 5422 5421 5420 5420 5419 5415 5412 5410 5408 5407 5406 5405 5404 5404 5404
5432 5433 5433 5434 5435 5435 5436 5438 5438 5438 5436 5437 5436 5436 5435 5434 5432 5431 5429 5427 5425 5423 5419 5414 5412 5410 5411 5412 5408 5406 5405 5403 5402 5400 5398 5397 5397 5397
5423 5424 5424 5425 5426 5426 5426 5428 5429 5428 5428 5428 5429 5428 5427 5427 5425 5423 5421 5418 5416 5414 5411 5406 5404 5401 5399 5400 5402 5400 5399 5397 5396 5395 5393 5391 5390 5389
5414 5414 5415 5416 5417 5417 5417 5418 5418 5419 5420 5420 5421 5421 5420 5419 5417 5416 5414 5412 5410 5408 5405 5401 5397 5395 5393 5393 5394 5394 5392 5391 5389 5388 5387 5386 5385 5384
5404 5404 5405 5406 5408 5408 5409 5409 5409 5410 5412 5413 5414 5413 5413 5412 5411 5409 5408 5406 5405 5403 5400 5397 5394 5392 5389 5387 5386 5386 5386 5386 5384 5383 5382 5381 5380 5380
5393 5394 5395 5396 5398 5399 5399 5400 5401 5402 5403 5405 5405 5405 5405 5405 5404 5403 5402 5402 5401 5399 5396 5393 5391 5389 5386 5384 5382 5382 5381 5379 5379 5378 5377 5376 5376 5375
5383 5384 5386 5388 5389 5390 5391 5391 5392 5394 5395 5396 5397 5398 5398 5398 5397 5397 5396 5396 5395 5393 5392 5390 5388 5386 5384 5381 5380 5379 5377 5376 5375 5373 5373 5374 5373 5372
5374 5376 5377 5379 5380 5381 5382 5383 5385 5386 5388 5388 5390 5391 5392 5392 5391 5391 5391 5391 5390 5388 5386 5384 5384 5384 5383 5380 5376 5374 5373 5372 5372 5371 5371 5371 5371 5369
5366 5367 5369 5370 5372 5373 5374 5376 5377 5379 5380 5382 5383 5385 5385 5386 5386 5386 5386 5385 5385 5383 5381 5379 5379 5379 5380 5378 5375 5370 5369 5369 5369 5369 5369 5368 5367 5367
5357 5358 5360 5362 5363 5365 5366 5368 5369 5371 5373 5375 5377 5379 5380 5380 5381 5381 5381 5380 5379 5378 5377 5376 5375 5374 5373 5372 5369 5368 5366 5365 5366 5366 5366 5367 5366 5366
5349 5350 5351 5353 5355 5357 5359 5361 5362 5364 5366 5369 5371 5373 5374 5375 5376 5376 5376 5375 5374 5374 5374 5373 5371 5370 5369 5369 5368 5367 5366 5364 5362 5362 5363 5364 5365 5366
5342 5343 5344 5346 5348 5350 5352 5354 5356 5359 5361 5364 5366 5368 5369 5370 5371 5371 5371 5371 5370 5370 5369 5369 5368 5368 5368 5368 5367 5366 5366 5365 5364 5362 5361 5360 5360 5361
5335 5336 5337 5339 5341 5344 5346 5348 5351 5354 5356 5359 5361 5363 5364 5366 5366 5366 5366 5366 5366 5366 5366 5366 5366 5366 5365 5365 5364 5365 5364 5364 5364 5364 5363 5360 5359 5359